Victoria, British Columbia

7:57 PM PST on February 19, 2017 (GMT -0800)
Victoria International

Weather History for CYYJ - February, 2014

Change the Weather History Date:

Tuesday, February 18, 2014

  Actual Average Record
Temperature  
Mean Temperature 42 °F -  
Max Temperature 47 °F 49 °F 51 °F (2004)
Min Temperature 35 °F 35 °F 26 °F (2006)
Degree Days  
Heating Degree Days 24    
Moisture  
Dew Point 37 °F    
Average Humidity 83    
Maximum Humidity 93    
Minimum Humidity 59    
Precipitation  
Precipitation 0.31 in 0.11 in - ()
Sea Level Pressure  
Sea Level Pressure 29.69 in    
Wind  
Wind Speed 11 mph ()    
Max Wind Speed 29 mph    
Max Gust Speed 45 mph    
Visibility 12.2 miles    
Events Rain    
Averages and records for this station are not official NWS values.
T = Trace of Precipitation, MM = Missing Value Source: Averaged Metar Reports

Daily Weather History Graph

Daily Weather History Graph

Search for Another Location

Airport or City:

Trip Planner

Search our weather history database for the weather conditions in past years. The results will help you decide how hot, cold, wet, or windy it might be!

Date:

Astronomy

Feb. 18, 2014 Rise Set
Actual Time 7:15 AM PST 5:40 PM PST
Civil Twilight 6:43 AM PST 6:12 PM PST
Nautical Twilight 6:07 AM PST 6:48 PM PST
Astronomical Twilight 5:30 AM PST 7:25 PM PST
Moon 10:02 PM PST (2/18) 8:30 AM PST (2/18)
Length of Visible Light 11h 28m
Length of Day
10h 24m
Waning Gibbous, 86% of the Moon is Illuminated
Feb 18
Waning Gibbous
Feb 22
Last Quarter
Mar 1
New
Mar 8
First Quarter
Mar 16
Full

Hourly Weather History & Observations

Time (PST) Temp. Windchill Dew Point Humidity Pressure Visibility Wind Dir Wind Speed Gust Speed Precip Events Conditions
12:00 AM 41.0 °F 34.3 °F 37.4 °F 87% 29.89 in 8.0 mi South 11.5 mph - N/A Rain Light Rain Showers
1:00 AM 39.2 °F 32.5 °F 37.4 °F 93% 29.89 in 12.0 mi South 10.4 mph - N/A   Mostly Cloudy
1:48 AM 39.2 °F 31.6 °F 37.4 °F 93% 29.89 in 12.0 mi South 12.7 mph 19.6 mph N/A Rain Light Rain Showers
2:00 AM 39.2 °F 32.0 °F 37.4 °F 93% 29.89 in 12.0 mi South 11.5 mph 19.6 mph N/A Rain Light Rain Showers
3:00 AM 39.2 °F 32.5 °F 37.4 °F 93% 29.88 in 15.0 mi SSE 10.4 mph - N/A   Mostly Cloudy
4:00 AM 41 °F - 40 °F 92% 29.86 in 12 mi SE 11.5 mph - -   Partly Cloudy
4:00 AM 41.0 °F 34.7 °F 39.2 °F 93% 29.86 in 12.0 mi SE 10.4 mph 18.4 mph N/A   Overcast
5:00 AM 42.8 °F 35.8 °F 39.2 °F 87% 29.84 in 8.0 mi SE 13.8 mph 19.6 mph N/A   Overcast
5:10 AM 42.8 °F 35.8 °F 39.2 °F 87% 29.83 in 8.0 mi ESE 13.8 mph 24.2 mph N/A Rain Light Rain
6:00 AM 42.8 °F 36.2 °F 39.2 °F 87% 29.78 in 8.0 mi ESE 12.7 mph 19.6 mph N/A Rain Light Rain
7:00 AM 42.8 °F 35.4 °F 39.2 °F 87% 29.74 in 5.0 mi ESE 15.0 mph 26.5 mph N/A Rain Light Rain
7:17 AM 42.8 °F 36.2 °F 41.0 °F 93% 29.73 in 5.0 mi SE 12.7 mph 23.0 mph N/A Rain Light Rain
8:00 AM 42.8 °F 37.5 °F 41.0 °F 93% 29.70 in 5.0 mi SSE 9.2 mph - N/A Rain Light Rain
9:00 AM 42.8 °F 39.3 °F 41.0 °F 93% 29.66 in 5.0 mi SE 5.8 mph - N/A Rain Rain
9:10 AM 42.8 °F 37.0 °F 41.0 °F 93% 29.65 in 5.0 mi SE 10.4 mph - N/A Rain Light Rain
10:00 AM 44 °F - 42 °F 88% 29.60 in 5 mi SSE 11.5 mph - - Rain Light Rain
10:00 AM 44.6 °F 39.2 °F 41.0 °F 87% 29.60 in 5.0 mi SSE 10.4 mph 17.3 mph N/A Rain Light Rain
11:00 AM 44.6 °F 40.2 °F 42.8 °F 93% 29.53 in 5.0 mi SSE 8.1 mph - N/A Rain Light Rain
12:00 PM 44.6 °F 39.7 °F 42.8 °F 93% 29.48 in 8.0 mi South 9.2 mph - N/A   Overcast
1:00 PM 46.4 °F 40.4 °F 44.6 °F 93% 29.46 in 8.0 mi SSE 13.8 mph 20.7 mph N/A Rain Light Rain
2:00 PM 48.2 °F - 42.8 °F 82% 29.49 in 15.0 mi West 3.5 mph - N/A   Mostly Cloudy
2:08 PM 46.4 °F 37.7 °F 39.2 °F 76% 29.49 in 15.0 mi WSW 26.5 mph 36.8 mph N/A Rain Light Rain
3:00 PM 46.4 °F 39.2 °F 39.2 °F 76% 29.50 in 15.0 mi SW 18.4 mph 28.8 mph N/A Rain Light Rain
4:00 PM 46 °F - 36 °F 59% 29.52 in 19 mi WSW 17.3 mph - - Rain Light Rain
4:00 PM 46.4 °F 39.5 °F 35.6 °F 66% 29.52 in 20.0 mi SW 17.3 mph 24.2 mph N/A   Partly Cloudy
5:00 PM 42.8 °F 35.4 °F 33.8 °F 70% 29.57 in 20.0 mi WSW 15.0 mph 27.6 mph N/A   Partly Cloudy
5:38 PM 42.8 °F 34.5 °F 33.8 °F 70% 29.60 in 15.0 mi WSW 18.4 mph 29.9 mph N/A Rain Light Rain
6:00 PM 41.0 °F 33.9 °F 33.8 °F 76% 29.62 in 20.0 mi WSW 12.7 mph 26.5 mph N/A   Partly Cloudy
6:18 PM 42.8 °F 34.3 °F 33.8 °F 70% 29.64 in 15.0 mi SW 19.6 mph 29.9 mph N/A Rain Light Rain Showers
6:41 PM 41.0 °F 33.9 °F 33.8 °F 76% 29.65 in 20.0 mi SW 12.7 mph - N/A   Partly Cloudy
7:00 PM 41.0 °F 32.2 °F 33.8 °F 76% 29.68 in 15.0 mi WSW 18.4 mph 25.3 mph N/A Rain Light Rain Showers
7:16 PM 39.2 °F 31.6 °F 33.8 °F 81% 29.68 in 20.0 mi WSW 12.7 mph 23.0 mph N/A   Partly Cloudy
8:00 PM 41.0 °F 31.6 °F 30.2 °F 65% 29.70 in 20.0 mi WSW 20.7 mph 32.2 mph N/A   Partly Cloudy
8:13 PM 39.2 °F 27.6 °F 32.0 °F 75% 29.73 in 15.0 mi West 28.8 mph 44.9 mph N/A Rain Light Rain Showers
8:36 PM 37.4 °F 31.4 °F 33.8 °F 87% 29.72 in 20.0 mi WSW 8.1 mph 18.4 mph N/A   Partly Cloudy
9:00 PM 39.2 °F 32.0 °F 32.0 °F 75% 29.74 in 30.0 mi WSW 11.5 mph - N/A   Partly Cloudy
10:00 PM 38 °F - 32 °F 71% 29.78 in 28 mi South 5.8 mph - -   Partly Cloudy
10:00 PM 39.2 °F 34.2 °F 32.0 °F 75% 29.77 in 30.0 mi South 6.9 mph - N/A   Scattered Clouds
11:00 PM 37.4 °F 30.3 °F 33.8 °F 87% 29.79 in 30.0 mi South 10.4 mph - N/A   Partly Cloudy
11:28 PM 35.6 °F 28.6 °F 33.8 °F 93% 29.79 in 30.0 mi South 9.2 mph - N/A   Partly Cloudy